This is the latest recevied weather packets stored in our database for station/object SQ5OUZ-8. If no packets are shown the sender has not sent any weather packets the latest 10 day(s).
| Time | Temp. | Humidity | Pressure | Rain* | Wind** | Luminosity | Snow |
|---|---|---|---|---|---|---|---|
| 1777990822 | 28.89° C | 16% | 1007 hPa | - | - | - | - |
| 1777989720 | 29.44° C | 16% | 1007 hPa | - | - | - | - |
| 1777988670 | 30° C | 15% | 1007 hPa | - | - | - | - |
| 1777987705 | 32.22° C | 14% | 1007 hPa | - | - | - | - |
| 1777986669 | 30.56° C | 15% | 1008 hPa | - | - | - | - |
| 1777985563 | 32.78° C | 16% | 1008 hPa | - | - | - | - |
| 1777984391 | 29.44° C | 17% | 1008 hPa | - | - | - | - |
| 1777983406 | 30.56° C | 15% | 1008 hPa | - | - | - | - |
| 1777982380 | 31.67° C | 16% | 1008 hPa | - | - | - | - |
| 1777981400 | 32.22° C | 15% | 1008 hPa | - | - | - | - |
| 1777980362 | 31.67° C | 15% | 1008 hPa | - | - | - | - |
| 1777979247 | 32.22° C | 14% | 1009 hPa | - | - | - | - |
| 1777978203 | 32.22° C | 16% | 1009 hPa | - | - | - | - |
| 1777977131 | 31.67° C | 16% | 1009 hPa | - | - | - | - |
| 1777976005 | 31.11° C | 17% | 1009 hPa | - | - | - | - |
| 1777974967 | 30.56° C | 17% | 1009 hPa | - | - | - | - |
| 1777973796 | 32.22° C | 17% | 1009 hPa | - | - | - | - |
| 1777972629 | 32.22° C | 18% | 1010 hPa | - | - | - | - |
| 1777971513 | 31.67° C | 18% | 1010 hPa | - | - | - | - |
| 1777970498 | 31.11° C | 18% | 1010 hPa | - | - | - | - |
| 1777969384 | 30.56° C | 18% | 1010 hPa | - | - | - | - |
| 1777968228 | 28.89° C | 19% | 1010 hPa | - | - | - | - |
| 1777967034 | 28.33° C | 19% | 1010 hPa | - | - | - | - |
| 1777965959 | 28.33° C | 20% | 1011 hPa | - | - | - | - |
| 1777964851 | 27.78° C | 23% | 1011 hPa | - | - | - | - |
* Rain since midnight (hover to see other rain measurements)
** Current wind speed in m/s (hover to see current wind gust speed)